Time,TemperatureF,DewpointF,PressureIn,WindDirection,WindDirectionDegrees,WindSpeedMPH,WindSpeedGustMPH,Humidity,HourlyPrecipIn,Conditions,Clouds,dailyrainin,SoftwareType,DateUTC
2013-03-27 00:04:00,52.9,-6.8,29.74,WSW,241,0.0,0.0,8,0.00,,---,0.00,VWS V14.01,2013-03-27 07:04:00,
2013-03-27 00:09:00,52.7,-7.0,29.74,WSW,241,0.0,0.0,8,0.00,,---,0.00,VWS V14.01,2013-03-27 07:09:00,
2013-03-27 00:14:00,52.2,-7.4,29.74,WSW,239,0.0,0.0,8,0.00,,---,0.00,VWS V14.01,2013-03-27 07:14:00,
2013-03-27 00:19:00,52.2,-7.4,29.74,WSW,246,0.0,0.0,8,0.00,,---,0.00,VWS V14.01,2013-03-27 07:19:00,
2013-03-27 00:24:00,52.7,-7.0,29.74,SW,230,0.0,0.0,8,0.00,,---,0.00,VWS V14.01,2013-03-27 07:24:00,
2013-03-27 00:30:00,52.9,-6.8,29.74,SW,230,0.0,0.0,8,0.00,,---,0.00,VWS V14.01,2013-03-27 07:30:00,
2013-03-27 00:35:00,52.2,-7.4,29.74,SSE,147,0.0,0.0,8,0.00,,---,0.00,VWS V14.01,2013-03-27 07:35:00,
2013-03-27 00:40:00,51.6,-5.4,29.74,SE,146,0.0,0.0,9,0.00,,---,0.00,VWS V14.01,2013-03-27 07:40:00,
2013-03-27 00:45:00,51.4,-5.5,29.74,SE,146,0.0,0.0,9,0.00,,---,0.00,VWS V14.01,2013-03-27 07:45:00,
2013-03-27 00:50:00,51.4,-5.5,29.74,SSE,153,0.0,0.0,9,0.00,,---,0.00,VWS V14.01,2013-03-27 07:50:00,
2013-03-27 00:55:00,51.3,-5.6,29.74,WSW,256,0.0,0.0,9,0.00,,---,0.00,VWS V14.01,2013-03-27 07:55:00,
2013-03-27 01:01:00,50.7,-6.1,29.74,WSW,256,0.0,0.0,9,0.00,,---,0.00,VWS V14.01,2013-03-27 08:01:00,
2013-03-27 01:06:00,49.8,-6.7,29.74,WSW,249,0.0,0.0,9,0.00,,---,0.00,VWS V14.01,2013-03-27 08:06:00,
2013-03-27 01:11:00,51.4,-5.5,29.74,SW,224,0.0,0.0,9,0.00,,---,0.00,VWS V14.01,2013-03-27 08:11:00,
2013-03-27 01:16:00,52.5,-7.1,29.74,SW,224,0.0,0.0,8,0.00,,---,0.00,VWS V14.01,2013-03-27 08:16:00,
2013-03-27 01:21:00,53.1,-6.7,29.74,SW,219,0.0,0.0,8,0.00,,---,0.00,VWS V14.01,2013-03-27 08:21:00,
2013-03-27 01:26:00,52.5,-7.1,29.74,SSW,209,0.0,0.0,8,0.00,,---,0.00,VWS V14.01,2013-03-27 08:26:00,
2013-03-27 01:31:00,51.6,-5.4,29.74,SSW,193,0.0,0.0,9,0.00,,---,0.00,VWS V14.01,2013-03-27 08:31:00,
2013-03-27 01:37:00,51.3,-5.6,29.74,SSW,193,0.0,0.0,9,0.00,,---,0.00,VWS V14.01,2013-03-27 08:37:00,
2013-03-27 01:42:00,50.2,-6.5,29.74,SSW,193,0.0,0.0,9,0.00,,---,0.00,VWS V14.01,2013-03-27 08:42:00,
2013-03-27 01:47:00,49.6,-6.9,29.74,SSW,193,0.0,0.0,9,0.00,,---,0.00,VWS V14.01,2013-03-27 08:47:00,
2013-03-27 01:52:00,49.8,-6.7,29.74,SSW,193,0.0,0.0,9,0.00,,---,0.00,VWS V14.01,2013-03-27 08:52:00,
2013-03-27 01:57:00,49.8,-6.7,29.74,SSW,193,0.0,0.0,9,0.00,,---,0.00,VWS V14.01,2013-03-27 08:57:00,
2013-03-27 02:03:00,49.3,-7.2,29.74,SSW,193,0.0,0.0,9,0.00,,---,0.00,VWS V14.01,2013-03-27 09:03:00,
2013-03-27 02:08:00,48.4,-7.8,29.74,SSW,193,0.0,0.0,9,0.00,,---,0.00,VWS V14.01,2013-03-27 09:08:00,
2013-03-27 02:13:00,48.6,-7.7,29.74,SSW,193,0.0,0.0,9,0.00,,---,0.00,VWS V14.01,2013-03-27 09:13:00,
2013-03-27 02:18:00,48.9,-7.4,29.74,SSW,193,0.0,0.0,9,0.00,,---,0.00,VWS V14.01,2013-03-27 09:18:00,
2013-03-27 02:23:00,48.9,-7.4,29.71,SSW,193,0.0,0.0,9,0.00,,---,0.00,VWS V14.01,2013-03-27 09:23:00,
2013-03-27 02:29:00,48.9,-7.4,29.71,SSW,193,0.0,0.0,9,0.00,,---,0.00,VWS V14.01,2013-03-27 09:29:00,
2013-03-27 02:34:00,48.7,-7.6,29.71,SSW,193,0.0,0.0,9,0.00,,---,0.00,VWS V14.01,2013-03-27 09:34:00,
2013-03-27 02:39:00,48.2,-8.0,29.71,SSW,193,0.0,0.0,9,0.00,,---,0.00,VWS V14.01,2013-03-27 09:39:00,
2013-03-27 02:44:00,47.5,-8.5,29.71,SSW,193,0.0,0.0,9,0.00,,---,0.00,VWS V14.01,2013-03-27 09:44:00,
2013-03-27 02:49:00,47.7,-8.4,29.71,SSW,193,0.0,0.0,9,0.00,,---,0.00,VWS V14.01,2013-03-27 09:49:00,
2013-03-27 02:54:00,48.0,-8.1,29.71,SSW,193,0.0,0.0,9,0.00,,---,0.00,VWS V14.01,2013-03-27 09:54:00,
2013-03-27 03:00:00,48.2,-8.0,29.71,SSW,193,0.0,0.0,9,0.00,,---,0.00,VWS V14.01,2013-03-27 10:00:00,
2013-03-27 03:05:00,48.0,-8.1,29.71,SSW,193,0.0,0.0,9,0.00,,---,0.00,VWS V14.01,2013-03-27 10:05:00,
2013-03-27 03:10:00,47.5,-8.5,29.74,SSW,193,0.0,0.0,9,0.00,,---,0.00,VWS V14.01,2013-03-27 10:10:00,
2013-03-27 03:15:00,46.9,-8.9,29.74,SSW,193,0.0,0.0,9,0.00,,---,0.00,VWS V14.01,2013-03-27 10:15:00,
2013-03-27 03:20:00,46.8,-9.1,29.74,SSW,193,0.0,0.0,9,0.00,,---,0.00,VWS V14.01,2013-03-27 10:20:00,
2013-03-27 03:25:00,46.6,-9.2,29.71,SSW,208,0.0,0.0,9,0.00,,---,0.00,VWS V14.01,2013-03-27 10:25:00,
2013-03-27 03:30:00,46.6,-9.2,29.71,SSW,209,0.0,0.0,9,0.00,,---,0.00,VWS V14.01,2013-03-27 10:30:00,
2013-03-27 03:35:00,46.0,-7.5,29.71,SSW,209,0.0,0.0,10,0.00,,---,0.00,VWS V14.01,2013-03-27 10:35:00,
2013-03-27 03:40:00,45.7,-7.8,29.71,SSW,209,0.0,0.0,10,0.00,,---,0.00,VWS V14.01,2013-03-27 10:40:00,
2013-03-27 03:45:00,45.7,-7.8,29.71,SSW,209,0.0,0.0,10,0.00,,---,0.00,VWS V14.01,2013-03-27 10:45:00,
2013-03-27 03:50:00,45.7,-7.8,29.71,SSW,209,0.0,0.0,10,0.00,,---,0.00,VWS V14.01,2013-03-27 10:50:00,
2013-03-27 03:56:00,45.7,-7.8,29.71,SSW,209,0.0,0.0,10,0.00,,---,0.00,VWS V14.01,2013-03-27 10:56:00,
2013-03-27 04:01:00,45.9,-7.6,29.71,SSW,209,0.0,0.0,10,0.00,,---,0.00,VWS V14.01,2013-03-27 11:01:00,
2013-03-27 04:06:00,45.9,-7.6,29.71,SSW,209,0.0,0.0,10,0.00,,---,0.00,VWS V14.01,2013-03-27 11:06:00,
2013-03-27 04:11:00,45.5,-7.9,29.74,SSW,209,0.0,0.0,10,0.00,,---,0.00,VWS V14.01,2013-03-27 11:11:00,
2013-03-27 04:16:00,45.5,-7.9,29.74,SSW,209,0.0,0.0,10,0.00,,---,0.00,VWS V14.01,2013-03-27 11:16:00,
2013-03-27 04:22:00,45.5,-7.9,29.74,SSW,209,0.0,0.0,10,0.00,,---,0.00,VWS V14.01,2013-03-27 11:22:00,
2013-03-27 04:27:00,45.5,-7.9,29.74,SSW,209,0.0,0.0,10,0.00,,---,0.00,VWS V14.01,2013-03-27 11:27:00,
2013-03-27 04:32:00,45.1,-8.2,29.74,SSW,209,0.0,0.0,10,0.00,,---,0.00,VWS V14.01,2013-03-27 11:32:00,
2013-03-27 04:37:00,44.2,-8.9,29.74,SSW,209,0.0,0.0,10,0.00,,---,0.00,VWS V14.01,2013-03-27 11:37:00,
2013-03-27 04:42:00,44.6,-8.6,29.74,SSW,209,0.0,0.0,10,0.00,,---,0.00,VWS V14.01,2013-03-27 11:42:00,
2013-03-27 04:47:00,44.8,-8.5,29.74,SSW,209,0.0,0.0,10,0.00,,---,0.00,VWS V14.01,2013-03-27 11:47:00,
2013-03-27 04:53:00,44.8,-8.5,29.74,SSW,209,0.0,0.0,10,0.00,,---,0.00,VWS V14.01,2013-03-27 11:53:00,
2013-03-27 04:58:00,44.8,-8.5,29.74,SSW,209,0.0,0.0,10,0.00,,---,0.00,VWS V14.01,2013-03-27 11:58:00,
2013-03-27 05:03:00,45.3,-8.1,29.74,SSW,209,0.0,0.0,10,0.00,,---,0.00,VWS V14.01,2013-03-27 12:03:00,
2013-03-27 05:08:00,45.5,-7.9,29.74,SSW,209,0.0,0.0,10,0.00,,---,0.00,VWS V14.01,2013-03-27 12:08:00,
2013-03-27 05:13:00,45.3,-8.1,29.74,SSW,209,0.0,0.0,10,0.00,,---,0.00,VWS V14.01,2013-03-27 12:13:00,
2013-03-27 05:18:00,45.1,-8.2,29.74,SSW,209,0.0,0.0,10,0.00,,---,0.00,VWS V14.01,2013-03-27 12:18:00,
2013-03-27 05:23:00,44.6,-8.6,29.74,SSW,209,0.0,0.0,10,0.00,,---,0.00,VWS V14.01,2013-03-27 12:23:00,
2013-03-27 05:28:00,44.2,-8.9,29.74,SSW,209,0.0,0.0,10,0.00,,---,0.00,VWS V14.01,2013-03-27 12:28:00,
2013-03-27 05:33:00,44.2,-8.9,29.74,SSW,209,0.0,0.0,10,0.00,,---,0.00,VWS V14.01,2013-03-27 12:33:00,
2013-03-27 05:39:00,44.6,-8.6,29.74,SSW,209,0.0,0.0,10,0.00,,---,0.00,VWS V14.01,2013-03-27 12:39:00,
2013-03-27 05:44:00,45.3,-8.1,29.74,SSW,209,0.0,0.0,10,0.00,,---,0.00,VWS V14.01,2013-03-27 12:44:00,
2013-03-27 05:49:00,45.3,-8.1,29.74,SSW,209,0.0,0.0,10,0.00,,---,0.00,VWS V14.01,2013-03-27 12:49:00,
2013-03-27 05:54:00,45.3,-8.1,29.77,SSW,209,0.0,0.0,10,0.00,,---,0.00,VWS V14.01,2013-03-27 12:54:00,
2013-03-27 05:59:00,45.1,-8.2,29.77,SSW,209,0.0,0.0,10,0.00,,---,0.00,VWS V14.01,2013-03-27 12:59:00,
2013-03-27 06:04:00,45.0,-8.3,29.77,SSW,209,0.0,0.0,10,0.00,,---,0.00,VWS V14.01,2013-03-27 13:04:00,
2013-03-27 06:09:00,45.0,-8.3,29.77,SSW,209,0.0,0.0,10,0.00,,---,0.00,VWS V14.01,2013-03-27 13:09:00,
2013-03-27 06:15:00,45.0,-8.3,29.77,SSW,209,0.0,0.0,10,0.00,,---,0.00,VWS V14.01,2013-03-27 13:15:00,
2013-03-27 06:20:00,45.0,-8.3,29.77,SSW,209,0.0,0.0,10,0.00,,---,0.00,VWS V14.01,2013-03-27 13:20:00,
2013-03-27 06:25:00,44.8,-8.5,29.77,SSW,209,0.0,0.0,10,0.00,,---,0.00,VWS V14.01,2013-03-27 13:25:00,
2013-03-27 06:30:00,45.1,-8.2,29.77,SSW,209,0.0,0.0,10,0.00,,---,0.00,VWS V14.01,2013-03-27 13:30:00,
2013-03-27 06:35:00,45.1,-8.2,29.77,SSW,209,0.0,0.0,10,0.00,,---,0.00,VWS V14.01,2013-03-27 13:35:00,
2013-03-27 06:40:00,45.1,-8.2,29.77,SSW,209,0.0,0.0,10,0.00,,---,0.00,VWS V14.01,2013-03-27 13:40:00,
2013-03-27 06:45:00,45.1,-8.2,29.77,SSW,209,0.0,0.0,10,0.00,,---,0.00,VWS V14.01,2013-03-27 13:45:00,
2013-03-27 06:51:00,45.0,-8.3,29.77,SW,217,0.0,0.0,10,0.00,,---,0.00,VWS V14.01,2013-03-27 13:51:00,
2013-03-27 06:56:00,45.0,-8.3,29.77,WSW,240,0.0,0.0,10,0.00,,---,0.00,VWS V14.01,2013-03-27 13:56:00,
2013-03-27 07:01:00,45.3,-8.1,29.77,WSW,240,0.0,0.0,10,0.00,,---,0.00,VWS V14.01,2013-03-27 14:01:00,
2013-03-27 07:06:00,45.7,-7.8,29.77,WSW,240,0.0,0.0,10,0.00,,---,0.00,VWS V14.01,2013-03-27 14:06:00,
2013-03-27 07:11:00,46.6,-9.2,29.77,WSW,240,0.0,0.0,9,0.00,,---,0.00,VWS V14.01,2013-03-27 14:11:00,
2013-03-27 07:17:00,47.5,-8.5,29.77,WSW,240,0.0,0.0,9,0.00,,---,0.00,VWS V14.01,2013-03-27 14:17:00,
2013-03-27 07:22:00,48.2,-8.0,29.77,WSW,240,0.0,0.0,9,0.00,,---,0.00,VWS V14.01,2013-03-27 14:22:00,
2013-03-27 07:27:00,48.7,-7.6,29.77,WSW,240,0.0,0.0,9,0.00,,---,0.00,VWS V14.01,2013-03-27 14:27:00,
2013-03-27 07:33:00,49.5,-7.0,29.77,WSW,240,0.0,0.0,9,0.00,,---,0.00,VWS V14.01,2013-03-27 14:33:00,
2013-03-27 07:38:00,50.0,-6.6,29.80,West,268,0.0,0.0,9,0.00,,---,0.00,VWS V14.01,2013-03-27 14:38:00,
2013-03-27 07:43:00,50.5,-6.2,29.80,West,268,0.0,0.0,9,0.00,,---,0.00,VWS V14.01,2013-03-27 14:43:00,
2013-03-27 07:48:00,50.9,-5.9,29.80,West,268,0.0,0.0,9,0.00,,---,0.00,VWS V14.01,2013-03-27 14:48:00,
2013-03-27 07:53:00,51.4,-5.5,29.80,West,268,0.0,0.0,9,0.00,,---,0.00,VWS V14.01,2013-03-27 14:53:00,
2013-03-27 07:58:00,52.5,-7.1,29.80,West,268,0.0,0.0,8,0.00,,---,0.00,VWS V14.01,2013-03-27 14:58:00,
2013-03-27 08:03:00,53.4,-6.4,29.80,West,279,0.0,0.0,8,0.00,,---,0.00,VWS V14.01,2013-03-27 15:03:00,
2013-03-27 08:09:00,54.3,-5.8,29.80,West,280,0.0,0.0,8,0.00,,---,0.00,VWS V14.01,2013-03-27 15:09:00,
2013-03-27 08:14:00,55.0,-5.2,29.80,West,280,0.0,0.0,8,0.00,,---,0.00,VWS V14.01,2013-03-27 15:14:00,
2013-03-27 08:19:00,55.8,-7.4,29.80,WNW,298,0.0,0.0,7,0.00,,---,0.00,VWS V14.01,2013-03-27 15:19:00,
2013-03-27 08:24:00,56.5,-6.9,29.80,NNW,334,0.0,0.0,7,0.00,,---,0.00,VWS V14.01,2013-03-27 15:24:00,
2013-03-27 08:29:00,56.8,-6.6,29.80,NW,324,0.0,0.0,7,0.00,,---,0.00,VWS V14.01,2013-03-27 15:29:00,
2013-03-27 08:34:00,57.0,-6.5,29.80,NW,324,0.0,0.0,7,0.00,,---,0.00,VWS V14.01,2013-03-27 15:34:00,
2013-03-27 08:39:00,57.2,-6.3,29.80,NW,324,0.0,0.0,7,0.00,,---,0.00,VWS V14.01,2013-03-27 15:39:00,
2013-03-27 08:44:00,57.6,-6.1,29.80,NW,324,0.0,0.0,7,0.00,,---,0.00,VWS V14.01,2013-03-27 15:44:00,
2013-03-27 08:49:00,57.7,-5.9,29.80,NW,324,0.0,0.0,7,0.00,,---,0.00,VWS V14.01,2013-03-27 15:49:00,
2013-03-27 08:54:00,58.3,-5.6,29.80,NNW,337,0.0,0.0,7,0.00,,---,0.00,VWS V14.01,2013-03-27 15:54:00,
2013-03-27 08:59:00,58.8,-5.2,29.80,NW,325,0.0,0.0,7,0.00,,---,0.00,VWS V14.01,2013-03-27 15:59:00,
2013-03-27 09:04:00,59.4,-4.8,29.80,NNW,329,0.0,0.0,7,0.00,,---,0.00,VWS V14.01,2013-03-27 16:04:00,
2013-03-27 09:09:00,59.5,-4.6,29.80,NE,44,0.0,0.0,7,0.00,,---,0.00,VWS V14.01,2013-03-27 16:09:00,
2013-03-27 09:14:00,59.9,-4.3,29.80,East,90,0.0,0.0,7,0.00,,---,0.00,VWS V14.01,2013-03-27 16:14:00,
2013-03-27 09:19:00,60.4,-4.0,29.80,NE,36,0.0,0.0,7,0.00,,---,0.00,VWS V14.01,2013-03-27 16:19:00,
2013-03-27 09:25:00,61.2,-6.6,29.80,East,97,0.0,0.0,6,0.00,,---,0.00,VWS V14.01,2013-03-27 16:25:00,
2013-03-27 09:30:00,61.3,-6.5,29.80,NNE,20,5.4,5.4,6,0.00,,---,0.00,VWS V14.01,2013-03-27 16:30:00,
2013-03-27 09:35:00,61.3,-6.5,29.80,ENE,65,4.0,4.0,6,0.00,,---,0.00,VWS V14.01,2013-03-27 16:35:00,
2013-03-27 09:40:00,61.3,-6.5,29.80,North,11,2.7,2.7,6,0.00,,---,0.00,VWS V14.01,2013-03-27 16:40:00,
2013-03-27 09:45:00,61.7,-6.2,29.80,NE,51,0.0,0.0,6,0.00,,---,0.00,VWS V14.01,2013-03-27 16:45:00,
2013-03-27 09:51:00,62.8,-5.4,29.80,NNE,15,3.1,3.1,6,0.00,,---,0.00,VWS V14.01,2013-03-27 16:51:00,
2013-03-27 09:56:00,63.0,-5.3,29.80,NW,312,0.0,0.0,6,0.00,,---,0.00,VWS V14.01,2013-03-27 16:56:00,
2013-03-27 10:01:00,63.3,-5.0,29.80,ESE,105,0.0,0.0,6,0.00,,---,0.00,VWS V14.01,2013-03-27 17:01:00,
2013-03-27 10:06:00,63.7,-4.8,29.80,NE,56,0.0,0.0,6,0.00,,---,0.00,VWS V14.01,2013-03-27 17:06:00,
2013-03-27 10:12:00,64.2,-4.4,29.80,NNE,22,2.7,3.6,6,0.00,,---,0.00,VWS V14.01,2013-03-27 17:12:00,
2013-03-27 10:17:00,64.6,-7.9,29.80,ENE,64,0.0,0.0,5,0.00,,---,0.00,VWS V14.01,2013-03-27 17:17:00,
2013-03-27 10:22:00,64.9,-7.6,29.80,NNE,14,0.0,0.0,5,0.00,,---,0.00,VWS V14.01,2013-03-27 17:22:00,
2013-03-27 10:27:00,65.8,-7.0,29.80,NNE,12,0.0,0.0,5,0.00,,---,0.00,VWS V14.01,2013-03-27 17:27:00,
2013-03-27 10:32:00,66.6,-6.5,29.80,ESE,104,2.7,2.7,5,0.00,,---,0.00,VWS V14.01,2013-03-27 17:32:00,
2013-03-27 10:37:00,66.9,-6.2,29.80,NNE,25,2.7,2.7,5,0.00,,---,0.00,VWS V14.01,2013-03-27 17:37:00,
2013-03-27 10:42:00,66.9,-6.2,29.80,ESE,104,3.1,4.0,5,0.00,,---,0.00,VWS V14.01,2013-03-27 17:42:00,
2013-03-27 10:48:00,67.3,-6.0,29.80,ENE,73,6.3,6.3,5,0.00,,---,0.00,VWS V14.01,2013-03-27 17:48:00,
2013-03-27 10:53:00,67.3,-6.0,29.80,East,89,6.3,7.6,5,0.00,,---,0.00,VWS V14.01,2013-03-27 17:53:00,
2013-03-27 10:58:00,68.9,-4.8,29.80,East,87,3.1,4.0,5,0.00,,---,0.00,VWS V14.01,2013-03-27 17:58:00,
2013-03-27 11:03:00,69.6,-4.3,29.80,East,90,3.1,5.8,5,0.00,,---,0.00,VWS V14.01,2013-03-27 18:03:00,
2013-03-27 11:08:00,70.3,-8.4,29.80,East,95,3.1,3.1,4,0.00,,---,0.00,VWS V14.01,2013-03-27 18:08:00,
2013-03-27 11:13:00,70.5,-8.3,29.80,ESE,115,6.3,6.3,4,0.00,,---,0.00,VWS V14.01,2013-03-27 18:13:00,
2013-03-27 11:18:00,70.5,-8.3,29.80,East,81,5.4,5.4,4,0.00,,---,0.00,VWS V14.01,2013-03-27 18:18:00,
2013-03-27 11:24:00,70.7,-8.1,29.77,ENE,75,8.3,8.3,4,0.00,,---,0.00,VWS V14.01,2013-03-27 18:24:00,
2013-03-27 11:29:00,70.7,-8.1,29.77,NE,56,7.6,8.3,4,0.00,,---,0.00,VWS V14.01,2013-03-27 18:29:00,
2013-03-27 11:34:00,70.9,-8.0,29.77,NE,41,8.3,8.3,4,0.00,,---,0.00,VWS V14.01,2013-03-27 18:34:00,
2013-03-27 11:39:00,72.0,-7.3,29.77,ENE,68,5.8,6.3,4,0.00,,---,0.00,VWS V14.01,2013-03-27 18:39:00,
2013-03-27 11:44:00,72.0,-7.3,29.77,ENE,70,6.7,6.7,4,0.00,,---,0.00,VWS V14.01,2013-03-27 18:44:00,
2013-03-27 11:49:00,72.3,-7.0,29.77,ENE,70,8.7,8.7,4,0.00,,---,0.00,VWS V14.01,2013-03-27 18:49:00,
2013-03-27 11:55:00,72.3,-7.0,29.77,East,93,8.7,8.7,4,0.00,,---,0.00,VWS V14.01,2013-03-27 18:55:00,
2013-03-27 12:00:00,72.3,-7.0,29.77,NE,34,10.5,10.5,4,0.00,,---,0.00,VWS V14.01,2013-03-27 19:00:00,
2013-03-27 12:05:00,73.0,-6.5,29.77,NE,56,8.1,8.1,4,0.00,,---,0.00,VWS V14.01,2013-03-27 19:05:00,
2013-03-27 12:10:00,73.8,-11.9,29.77,ESE,111,12.8,12.8,3,0.00,,---,0.00,VWS V14.01,2013-03-27 19:10:00,
2013-03-27 12:15:00,74.5,-11.4,29.77,SE,141,8.3,13.2,3,0.00,,---,0.00,VWS V14.01,2013-03-27 19:15:00,
2013-03-27 12:20:00,74.5,-11.4,29.77,ESE,107,8.1,8.3,3,0.00,,---,0.00,VWS V14.01,2013-03-27 19:20:00,
2013-03-27 12:26:00,74.1,-11.6,29.77,SE,133,13.2,13.2,3,0.00,,---,0.00,VWS V14.01,2013-03-27 19:26:00,
2013-03-27 12:31:00,75.6,-10.6,29.77,East,86,6.3,6.3,3,0.00,,---,0.00,VWS V14.01,2013-03-27 19:31:00,
2013-03-27 12:36:00,75.6,-10.6,29.77,East,95,8.1,12.8,3,0.00,,---,0.00,VWS V14.01,2013-03-27 19:36:00,
2013-03-27 12:42:00,75.6,-10.6,29.77,ESE,109,9.6,10.5,3,0.00,,---,0.00,VWS V14.01,2013-03-27 19:42:00,
2013-03-27 12:47:00,75.6,-10.6,29.77,South,170,8.7,8.7,3,0.00,,---,0.00,VWS V14.01,2013-03-27 19:47:00,
2013-03-27 12:52:00,74.1,-11.6,29.77,ESE,120,12.8,12.8,3,0.00,,---,0.00,VWS V14.01,2013-03-27 19:52:00,
2013-03-27 12:57:00,74.1,-11.6,29.77,SSE,158,5.4,5.4,3,0.00,,---,0.00,VWS V14.01,2013-03-27 19:57:00,
2013-03-27 13:02:00,73.9,-11.7,29.77,ESE,107,11.0,11.0,3,0.00,,---,0.00,VWS V14.01,2013-03-27 20:02:00,
2013-03-27 13:07:00,73.6,-12.0,29.74,SE,141,8.3,12.8,3,0.00,,---,0.00,VWS V14.01,2013-03-27 20:07:00,
2013-03-27 13:12:00,73.4,-12.1,29.74,SSE,168,6.3,8.3,3,0.00,,---,0.00,VWS V14.01,2013-03-27 20:12:00,
2013-03-27 13:18:00,73.2,-6.4,29.74,SE,143,5.8,5.8,4,0.00,,---,0.00,VWS V14.01,2013-03-27 20:18:00,
2013-03-27 13:23:00,73.4,-12.1,29.74,SE,141,5.8,7.6,3,0.00,,---,0.00,VWS V14.01,2013-03-27 20:23:00,
2013-03-27 13:28:00,73.4,-12.1,29.74,SE,145,8.1,8.7,3,0.00,,---,0.00,VWS V14.01,2013-03-27 20:28:00,
2013-03-27 13:33:00,73.0,-6.5,29.74,ESE,123,10.1,10.1,4,0.00,,---,0.00,VWS V14.01,2013-03-27 20:33:00,
2013-03-27 13:38:00,73.6,-12.0,29.74,SE,126,8.3,8.3,3,0.00,,---,0.00,VWS V14.01,2013-03-27 20:38:00,
2013-03-27 13:43:00,73.2,-6.4,29.74,ESE,121,15.0,15.0,4,0.00,,---,0.00,VWS V14.01,2013-03-27 20:43:00,
2013-03-27 13:49:00,73.4,-12.1,29.74,SSE,160,5.8,5.8,3,0.00,,---,0.00,VWS V14.01,2013-03-27 20:49:00,
2013-03-27 13:54:00,73.4,-12.1,29.74,SSE,148,0.0,0.0,3,0.00,,---,0.00,VWS V14.01,2013-03-27 20:54:00,
2013-03-27 13:59:00,73.2,-6.4,29.74,SE,136,0.0,0.0,4,0.00,,---,0.00,VWS V14.01,2013-03-27 20:59:00,
2013-03-27 14:04:00,73.2,-6.4,29.74,SE,129,0.0,0.0,4,0.00,,---,0.00,VWS V14.01,2013-03-27 21:04:00,
2013-03-27 14:09:00,73.4,-12.1,29.74,SSE,168,0.0,0.0,3,0.00,,---,0.00,VWS V14.01,2013-03-27 21:09:00,
2013-03-27 14:14:00,73.4,-12.1,29.74,SE,126,0.0,0.0,3,0.00,,---,0.00,VWS V14.01,2013-03-27 21:14:00,
2013-03-27 14:19:00,73.4,-12.1,29.74,SE,138,0.0,0.0,3,0.00,,---,0.00,VWS V14.01,2013-03-27 21:19:00,
2013-03-27 14:25:00,73.8,-11.9,29.74,SE,125,0.0,0.0,3,0.00,,---,0.00,VWS V14.01,2013-03-27 21:25:00,
2013-03-27 14:30:00,72.7,-6.8,29.74,SE,137,0.0,0.0,4,0.00,,---,0.00,VWS V14.01,2013-03-27 21:30:00,
2013-03-27 14:35:00,72.7,-6.8,29.74,ESE,112,0.0,0.0,4,0.00,,---,0.00,VWS V14.01,2013-03-27 21:35:00,
2013-03-27 14:41:00,73.0,-6.5,29.74,SSE,156,0.0,0.0,4,0.00,,---,0.00,VWS V14.01,2013-03-27 21:41:00,
2013-03-27 14:46:00,73.0,-6.5,29.74,SE,128,0.0,0.0,4,0.00,,---,0.00,VWS V14.01,2013-03-27 21:46:00,
2013-03-27 14:52:00,73.0,-6.5,29.74,SE,138,0.0,0.0,4,0.00,,---,0.00,VWS V14.01,2013-03-27 21:52:00,
2013-03-27 14:57:00,72.9,-6.6,29.74,SE,144,0.0,0.0,4,0.00,,---,0.00,VWS V14.01,2013-03-27 21:57:00,
2013-03-27 15:02:00,72.7,-6.8,29.74,SE,135,0.0,0.0,4,0.00,,---,0.00,VWS V14.01,2013-03-27 22:02:00,
2013-03-27 15:07:00,72.7,-6.8,29.74,ESE,120,0.0,0.0,4,0.00,,---,0.00,VWS V14.01,2013-03-27 22:07:00,
2013-03-27 15:13:00,72.7,-6.8,29.74,SE,129,0.0,0.0,4,0.00,,---,0.00,VWS V14.01,2013-03-27 22:13:00,
2013-03-27 15:18:00,72.7,-6.8,29.74,SSE,153,0.0,0.0,4,0.00,,---,0.00,VWS V14.01,2013-03-27 22:18:00,
2013-03-27 15:23:00,73.0,-6.5,29.74,SSE,157,0.0,0.0,4,0.00,,---,0.00,VWS V14.01,2013-03-27 22:23:00,
2013-03-27 15:28:00,73.0,-6.5,29.74,ESE,108,0.0,0.0,4,0.00,,---,0.00,VWS V14.01,2013-03-27 22:28:00,
2013-03-27 15:33:00,73.4,-12.1,29.74,SSE,149,0.0,0.0,3,0.00,,---,0.00,VWS V14.01,2013-03-27 22:33:00,
2013-03-27 15:38:00,72.9,-6.6,29.74,SE,145,0.0,0.0,4,0.00,,---,0.00,VWS V14.01,2013-03-27 22:38:00,
2013-03-27 15:43:00,72.3,-7.0,29.74,SSE,148,0.0,0.0,4,0.00,,---,0.00,VWS V14.01,2013-03-27 22:43:00,
2013-03-27 15:48:00,71.8,-7.4,29.74,ESE,109,0.0,0.0,4,0.00,,---,0.00,VWS V14.01,2013-03-27 22:48:00,
2013-03-27 15:54:00,71.6,-7.5,29.74,SE,145,0.0,0.0,4,0.00,,---,0.00,VWS V14.01,2013-03-27 22:54:00,
2013-03-27 15:59:00,71.6,-7.5,29.74,SE,124,0.0,0.0,4,0.00,,---,0.00,VWS V14.01,2013-03-27 22:59:00,
2013-03-27 16:04:00,71.6,-7.5,29.74,ESE,114,0.0,0.0,4,0.00,,---,0.00,VWS V14.01,2013-03-27 23:04:00,
2013-03-27 16:09:00,71.8,-7.4,29.74,SE,140,0.0,0.0,4,0.00,,---,0.00,VWS V14.01,2013-03-27 23:09:00,
2013-03-27 16:14:00,71.8,-7.4,29.74,SSE,160,0.0,0.0,4,0.00,,---,0.00,VWS V14.01,2013-03-27 23:14:00,
2013-03-27 16:19:00,71.4,-7.6,29.74,SE,133,0.0,0.0,4,0.00,,---,0.00,VWS V14.01,2013-03-27 23:19:00,
2013-03-27 16:24:00,71.4,-7.6,29.74,SE,136,0.0,0.0,4,0.00,,---,0.00,VWS V14.01,2013-03-27 23:24:00,
2013-03-27 16:30:00,71.2,-7.8,29.74,ESE,113,0.0,0.0,4,0.00,,---,0.00,VWS V14.01,2013-03-27 23:30:00,
2013-03-27 16:35:00,71.2,-7.8,29.74,SE,137,0.0,0.0,4,0.00,,---,0.00,VWS V14.01,2013-03-27 23:35:00,
2013-03-27 16:40:00,71.2,-7.8,29.74,SE,137,0.0,0.0,4,0.00,,---,0.00,VWS V14.01,2013-03-27 23:40:00,
2013-03-27 16:45:00,70.5,-8.3,29.74,SSE,147,0.0,0.0,4,0.00,,---,0.00,VWS V14.01,2013-03-27 23:45:00,
2013-03-27 16:51:00,70.5,-8.3,29.74,SE,126,0.0,0.0,4,0.00,,---,0.00,VWS V14.01,2013-03-27 23:51:00,
2013-03-27 16:56:00,70.5,-8.3,29.74,SE,127,0.0,0.0,4,0.00,,---,0.00,VWS V14.01,2013-03-27 23:56:00,
2013-03-27 17:01:00,70.7,-8.1,29.74,SE,145,0.0,0.0,4,0.00,,---,0.00,VWS V14.01,2013-03-28 00:01:00,
2013-03-27 17:06:00,71.1,-7.9,29.74,ESE,119,0.0,0.0,4,0.00,,---,0.00,VWS V14.01,2013-03-28 00:06:00,
2013-03-27 17:11:00,71.2,-7.8,29.74,SE,128,0.0,0.0,4,0.00,,---,0.00,VWS V14.01,2013-03-28 00:11:00,
2013-03-27 17:16:00,70.9,-8.0,29.74,ESE,115,0.0,0.0,4,0.00,,---,0.00,VWS V14.01,2013-03-28 00:16:00,
2013-03-27 17:21:00,70.3,-8.4,29.74,SSE,147,0.0,0.0,4,0.00,,---,0.00,VWS V14.01,2013-03-28 00:21:00,
2013-03-27 17:26:00,70.2,-8.5,29.74,SE,143,0.0,0.0,4,0.00,,---,0.00,VWS V14.01,2013-03-28 00:26:00,
2013-03-27 17:32:00,69.8,-8.8,29.74,SE,131,0.0,0.0,4,0.00,,---,0.00,VWS V14.01,2013-03-28 00:32:00,
2013-03-27 17:37:00,69.8,-8.8,29.74,ESE,117,0.0,0.0,4,0.00,,---,0.00,VWS V14.01,2013-03-28 00:37:00,
2013-03-27 17:42:00,69.8,-8.8,29.74,SE,142,0.0,0.0,4,0.00,,---,0.00,VWS V14.01,2013-03-28 00:42:00,
2013-03-27 17:48:00,69.8,-8.8,29.74,ESE,112,0.0,0.0,4,0.00,,---,0.00,VWS V14.01,2013-03-28 00:48:00,
2013-03-27 17:53:00,69.6,-4.3,29.74,SSE,153,0.0,0.0,5,0.00,,---,0.00,VWS V14.01,2013-03-28 00:53:00,
2013-03-27 17:58:00,69.4,-4.4,29.74,SE,126,0.0,0.0,5,0.00,,---,0.00,VWS V14.01,2013-03-28 00:58:00,
2013-03-27 18:03:00,69.1,-4.7,29.74,SE,131,0.0,0.0,5,0.00,,---,0.00,VWS V14.01,2013-03-28 01:03:00,
2013-03-27 18:08:00,68.7,-4.9,29.74,SSE,147,0.0,0.0,5,0.00,,---,0.00,VWS V14.01,2013-03-28 01:08:00,
2013-03-27 18:13:00,68.5,-5.1,29.74,SE,141,0.0,0.0,5,0.00,,---,0.00,VWS V14.01,2013-03-28 01:13:00,
2013-03-27 18:18:00,68.2,-5.3,29.74,SE,136,0.0,0.0,5,0.00,,---,0.00,VWS V14.01,2013-03-28 01:18:00,
2013-03-27 18:23:00,68.0,-5.4,29.74,ESE,106,4.0,4.0,5,0.00,,---,0.00,VWS V14.01,2013-03-28 01:23:00,
2013-03-27 18:28:00,67.8,-5.6,29.74,ESE,119,7.6,7.6,5,0.00,,---,0.00,VWS V14.01,2013-03-28 01:28:00,
2013-03-27 18:34:00,67.5,-5.8,29.74,ESE,118,3.1,5.4,5,0.00,,---,0.00,VWS V14.01,2013-03-28 01:34:00,
2013-03-27 18:39:00,67.1,-6.1,29.77,ESE,112,3.6,5.4,5,0.00,,---,0.00,VWS V14.01,2013-03-28 01:39:00,
2013-03-27 18:44:00,66.9,-6.2,29.77,ESE,114,5.4,5.4,5,0.00,,---,0.00,VWS V14.01,2013-03-28 01:44:00,
2013-03-27 18:49:00,66.7,-6.3,29.77,ESE,115,5.4,8.1,5,0.00,,---,0.00,VWS V14.01,2013-03-28 01:49:00,
2013-03-27 18:55:00,66.6,-6.5,29.77,SE,144,5.4,8.3,5,0.00,,---,0.00,VWS V14.01,2013-03-28 01:55:00,
2013-03-27 19:00:00,66.2,-6.7,29.77,SE,142,5.4,6.3,5,0.00,,---,0.00,VWS V14.01,2013-03-28 02:00:00,
2013-03-27 19:05:00,66.0,-6.9,29.77,SE,127,5.8,5.8,5,0.00,,---,0.00,VWS V14.01,2013-03-28 02:05:00,
2013-03-27 19:10:00,65.8,-7.0,29.77,SE,132,4.9,5.4,5,0.00,,---,0.00,VWS V14.01,2013-03-28 02:10:00,
2013-03-27 19:15:00,65.7,-7.1,29.77,SE,144,6.3,6.3,5,0.00,,---,0.00,VWS V14.01,2013-03-28 02:15:00,
2013-03-27 19:21:00,65.3,-7.4,29.77,SE,135,5.4,5.8,5,0.00,,---,0.00,VWS V14.01,2013-03-28 02:21:00,
2013-03-27 19:26:00,65.1,-7.5,29.77,SE,135,5.8,5.8,5,0.00,,---,0.00,VWS V14.01,2013-03-28 02:26:00,
2013-03-27 19:31:00,64.9,-7.6,29.77,SE,140,0.0,0.0,5,0.00,,---,0.00,VWS V14.01,2013-03-28 02:31:00,
2013-03-27 19:36:00,64.2,-4.4,29.77,SE,135,0.0,0.0,6,0.00,,---,0.00,VWS V14.01,2013-03-28 02:36:00,
2013-03-27 19:42:00,63.9,-4.7,29.77,SE,137,0.0,0.0,6,0.00,,---,0.00,VWS V14.01,2013-03-28 02:42:00,
2013-03-27 19:47:00,63.0,-5.3,29.77,SE,140,0.0,0.0,6,0.00,,---,0.00,VWS V14.01,2013-03-28 02:47:00,
2013-03-27 19:52:00,62.4,-5.7,29.77,SSE,162,0.0,0.0,6,0.00,,---,0.00,VWS V14.01,2013-03-28 02:52:00,
2013-03-27 19:57:00,62.1,-6.0,29.77,SSE,159,0.0,0.0,6,0.00,,---,0.00,VWS V14.01,2013-03-28 02:57:00,
2013-03-27 20:02:00,61.9,-6.1,29.77,SSE,166,0.0,0.0,6,0.00,,---,0.00,VWS V14.01,2013-03-28 03:02:00,
2013-03-27 20:07:00,61.9,-6.1,29.77,SSE,167,0.0,0.0,6,0.00,,---,0.00,VWS V14.01,2013-03-28 03:07:00,
2013-03-27 20:13:00,61.9,-6.1,29.77,SSE,168,0.0,0.0,6,0.00,,---,0.00,VWS V14.01,2013-03-28 03:13:00,
2013-03-27 20:18:00,61.9,-6.1,29.77,South,169,0.0,0.0,6,0.00,,---,0.00,VWS V14.01,2013-03-28 03:18:00,
2013-03-27 20:23:00,61.3,-6.5,29.77,SSE,168,0.0,0.0,6,0.00,,---,0.00,VWS V14.01,2013-03-28 03:23:00,
2013-03-27 20:28:00,60.6,-3.8,29.77,SSE,168,0.0,0.0,7,0.00,,---,0.00,VWS V14.01,2013-03-28 03:28:00,
2013-03-27 20:34:00,60.4,-4.0,29.77,South,171,0.0,0.0,7,0.00,,---,0.00,VWS V14.01,2013-03-28 03:34:00,
2013-03-27 20:39:00,59.9,-4.3,29.77,South,171,0.0,0.0,7,0.00,,---,0.00,VWS V14.01,2013-03-28 03:39:00,
2013-03-27 20:44:00,59.4,-4.8,29.77,SSE,159,0.0,0.0,7,0.00,,---,0.00,VWS V14.01,2013-03-28 03:44:00,
2013-03-27 20:49:00,59.0,-5.0,29.77,SSE,159,0.0,0.0,7,0.00,,---,0.00,VWS V14.01,2013-03-28 03:49:00,
2013-03-27 20:54:00,58.8,-5.2,29.77,SSE,160,0.0,0.0,7,0.00,,---,0.00,VWS V14.01,2013-03-28 03:54:00,
2013-03-27 20:59:00,58.8,-5.2,29.77,SW,222,0.0,0.0,7,0.00,,---,0.00,VWS V14.01,2013-03-28 03:59:00,
2013-03-27 21:00:00,58.8,-5.2,29.77,SW,233,4.9,4.9,7,0.00,,---,0.00,VWS V14.01,2013-03-28 04:00:00,
2013-03-27 21:03:00,59.2,-4.9,29.77,SW,236,3.6,5.4,7,0.00,,---,0.00,VWS V14.01,2013-03-28 04:03:00,
2013-03-27 21:08:00,59.2,-4.9,29.80,SW,229,6.3,6.3,7,0.00,,---,0.00,VWS V14.01,2013-03-28 04:08:00,
2013-03-27 21:14:00,59.4,-4.8,29.80,SW,222,6.3,6.3,7,0.00,,---,0.00,VWS V14.01,2013-03-28 04:14:00,
2013-03-27 21:19:00,59.2,-4.9,29.80,SW,232,3.1,4.9,7,0.00,,---,0.00,VWS V14.01,2013-03-28 04:19:00,
2013-03-27 21:24:00,59.2,-4.9,29.80,SW,229,0.0,0.0,7,0.00,,---,0.00,VWS V14.01,2013-03-28 04:24:00,
2013-03-27 21:29:00,59.2,-4.9,29.80,SSE,157,0.0,0.0,7,0.00,,---,0.00,VWS V14.01,2013-03-28 04:29:00,
2013-03-27 21:34:00,58.8,-5.2,29.80,SW,236,0.0,0.0,7,0.00,,---,0.00,VWS V14.01,2013-03-28 04:34:00,
2013-03-27 21:40:00,58.5,-5.4,29.80,SE,145,0.0,3.1,7,0.00,,---,0.00,VWS V14.01,2013-03-28 04:40:00,
2013-03-27 21:45:00,58.1,-5.7,29.80,South,171,0.0,0.0,7,0.00,,---,0.00,VWS V14.01,2013-03-28 04:45:00,
2013-03-27 21:50:00,57.6,-6.1,29.80,SSE,155,3.1,4.0,7,0.00,,---,0.00,VWS V14.01,2013-03-28 04:50:00,
2013-03-27 21:55:00,56.7,-6.8,29.80,South,171,4.0,4.9,7,0.00,,---,0.00,VWS V14.01,2013-03-28 04:55:00,
2013-03-27 22:00:00,55.9,-7.3,29.80,SSE,160,5.8,5.8,7,0.00,,---,0.00,VWS V14.01,2013-03-28 05:00:00,
2013-03-27 22:05:00,55.9,-7.3,29.80,SSE,162,0.0,0.0,7,0.00,,---,0.00,VWS V14.01,2013-03-28 05:05:00,
2013-03-27 22:11:00,55.8,-7.4,29.80,SSW,209,0.0,0.0,7,0.00,,---,0.00,VWS V14.01,2013-03-28 05:11:00,
2013-03-27 22:16:00,55.8,-7.4,29.80,SSE,162,3.1,4.0,7,0.00,,---,0.00,VWS V14.01,2013-03-28 05:16:00,
2013-03-27 22:21:00,55.4,-7.7,29.80,SE,140,5.4,5.4,7,0.00,,---,0.00,VWS V14.01,2013-03-28 05:21:00,
2013-03-27 22:26:00,55.0,-5.2,29.80,SSE,159,0.0,0.0,8,0.00,,---,0.00,VWS V14.01,2013-03-28 05:26:00,
2013-03-27 22:32:00,55.2,-5.1,29.80,SSE,165,2.2,2.2,8,0.00,,---,0.00,VWS V14.01,2013-03-28 05:32:00,
2013-03-27 22:37:00,55.4,-7.7,29.80,SSW,202,0.0,0.0,7,0.00,,---,0.00,VWS V14.01,2013-03-28 05:37:00,
2013-03-27 22:42:00,56.1,-7.2,29.80,SSE,160,0.0,0.0,7,0.00,,---,0.00,VWS V14.01,2013-03-28 05:42:00,
2013-03-27 22:47:00,56.3,-7.0,29.80,South,169,0.0,3.1,7,0.00,,---,0.00,VWS V14.01,2013-03-28 05:47:00,
2013-03-27 22:53:00,56.3,-7.0,29.80,South,186,3.6,3.6,7,0.00,,---,0.00,VWS V14.01,2013-03-28 05:53:00,
2013-03-27 22:58:00,55.9,-7.3,29.80,SSW,211,0.0,0.0,7,0.00,,---,0.00,VWS V14.01,2013-03-28 05:58:00,
2013-03-27 23:03:00,55.8,-7.4,29.80,SW,223,3.6,4.0,7,0.00,,---,0.00,VWS V14.01,2013-03-28 06:03:00,
2013-03-27 23:09:00,56.1,-7.2,29.80,WSW,248,0.0,0.0,7,0.00,,---,0.00,VWS V14.01,2013-03-28 06:09:00,
2013-03-27 23:14:00,55.6,-7.6,29.80,SW,232,0.0,0.0,7,0.00,,---,0.00,VWS V14.01,2013-03-28 06:14:00,
2013-03-27 23:19:00,55.0,-5.2,29.80,SSW,211,0.0,0.0,8,0.00,,---,0.00,VWS V14.01,2013-03-28 06:19:00,
2013-03-27 23:24:00,54.3,-5.8,29.80,SSW,211,0.0,0.0,8,0.00,,---,0.00,VWS V14.01,2013-03-28 06:24:00,
2013-03-27 23:29:00,53.8,-6.2,29.80,SSW,211,0.0,0.0,8,0.00,,---,0.00,VWS V14.01,2013-03-28 06:29:00,
2013-03-27 23:35:00,53.8,-6.2,29.80,SSW,211,0.0,0.0,8,0.00,,---,0.00,VWS V14.01,2013-03-28 06:35:00,
2013-03-27 23:40:00,53.4,-6.4,29.80,SSW,211,0.0,0.0,8,0.00,,---,0.00,VWS V14.01,2013-03-28 06:40:00,
2013-03-27 23:45:00,53.2,-6.6,29.80,SSW,213,0.0,0.0,8,0.00,,---,0.00,VWS V14.01,2013-03-28 06:45:00,
2013-03-27 23:50:00,52.9,-6.8,29.80,SSW,213,0.0,0.0,8,0.00,,---,0.00,VWS V14.01,2013-03-28 06:50:00,
2013-03-27 23:56:00,52.5,-7.1,29.80,SSW,213,0.0,0.0,8,0.00,,---,0.00,VWS V14.01,2013-03-28 06:56:00,